Montana Department of Transportation

Main Content

Accidents and Incidents Report

Hourly Weather Roundup

ASUS45 KTFX 250819
RWRMT 
MONTANA HOURLY WEATHER ROUNDUP
NATIONAL WEATHER SERVICE GREAT FALLS MT
219 AM MDT FRI JUL 25 2014

NOTE: "FAIR" INDICATES FEW OR NO CLOUDS BELOW 12000 FEET WITH NO
SIGNIFICANT WEATHER AND/OR OBSTRUCTIONS TO VISIBILITY.

* THESE STATIONS ARE NOT UNDER NWS QUALITY CONTROL. THEY DO NOT
   REPORT WEATHER SUCH AS PRECIPITATION OR FOG.

MTZ001.007-043-250900-
WEST OF THE DIVIDE
CITY           SKY/WX    TMP DP  RH WIND       PRES   REMARKS
KALISPELL      CLOUDY    57  43  60 S6        30.05F 
MISSOULA       CLEAR     48  37  66 NW7       30.12F 
BUTTE          CLEAR     48  32  54 VRB3      30.15S 
MULLAN PASS    CLOUDY    45  39  80 VRB6      30.17F 
* ESSEX        N/A       56  39  53 SE5G12     N/A   
* LINCOLN      N/A       50  36  59 W3G13      N/A   
* LOOKOUT PASS N/A       50  43  77 NE1G6      N/A   
* POLSON       N/A       53  40  62 S2G7       N/A   
* RONAN APT    PTCLDY    52  45  77 N/A        N/A   
* SEELEY LAKE  N/A       40  36  86 NE3        N/A   
* THOMP F APT  PTCLDY    46  23  40 NE4        N/A   
--------------------------------

MTZ008-052.055-250900-
SOUTHWEST MONTANA
CITY           SKY/WX    TMP DP  RH WIND       PRES   REMARKS
BOZEMAN        CLEAR     45  37  74 S6        30.09S 
DILLON         CLEAR     54  30  40 S9        30.11S 
W YELLOWSTONE  CLEAR     50  23  35 SW9       30.18F 
* THREE FORKS  CLEAR     52  45  77 N/A        N/A   
* BOULDER HILL N/A       48  30  50 S2         N/A   
* MONIDA PASS  N/A       48  15  27 SE1        N/A   
* RAYNOLDS PAS N/A       44  31  60 S2         N/A   
* WHITEHALL    N/A       56  33  42 NW1G9      N/A   
* WISE RIVER   N/A       46  33  61 NW3        N/A   
--------------------------------

MTZ009.010-012-014-046-048-049-054-250900-
EAST SLOPES AND CENTRAL MONTANA
CITY           SKY/WX    TMP DP  RH WIND       PRES   REMARKS
CUT BANK       CLEAR     54  37  53 SW21G29   29.92F 
GREAT FALLS    CLEAR     54  36  51 W10       29.99F 
HELENA         CLEAR     57  36  46 W12G22    30.05S 
MALMSTROM AFB  CLEAR     57  36  46 SW14      30.02R 
* CONRAD       CLEAR     55  39  55 S13G24     N/A   
* EAST GLACIER N/A       52  36  55 W7G19      N/A   
* MONARCH      N/A       54  26  34 W16G24     N/A   
* PENDROY      N/A       51  39  64 W11        N/A   
* SAINT MARY   N/A       53  38  57 SW9G27     N/A   
* SWEET GRASS  N/A       55  37  51 W19G31     N/A   
* WHITE SULPH  N/A       54  32  43 NW12G21    N/A   
--------------------------------

MTZ011-013-016-021-035-040-045-047-050-051-250900-
NORTH CENTRAL MONTANA
CITY           SKY/WX    TMP DP  RH WIND       PRES   REMARKS
HAVRE          CLEAR     55  37  51 SW18      29.85S 
LEWISTOWN      CLEAR     52  36  55 SW12      29.99R 
* FORT BENTON  CLEAR     61  34  36 SW17G23   29.92F 
* CHESTER      N/A       56  38  51 SW9G15     N/A   
* DENTON       N/A       54  31  42 NE6        N/A   
* GEYSER       N/A       59  33  38 W29G37     N/A   
* JUDITH GAP   N/A       57  32  39 W6         N/A   
* LOMA         N/A       58  37  46 SW18G24    N/A   
--------------------------------

MTZ017.020-022.027-061-062-250900-
NORTHEAST MONTANA
CITY           SKY/WX    TMP DP  RH WIND       PRES   REMARKS
GLASGOW        CLEAR     54  37  53 W7        29.89S 
GLENDIVE       CLEAR     54  48  80 W8        29.91S 
JORDAN         CLEAR     48  39  71 CALM      29.94S 
SIDNEY         CLEAR     55  48  77 W3        29.87R 
WOLF POINT     CLEAR     54  50  86 SW3       29.88S 
* BEAVER HILL  N/A       57  47  69 W4         N/A   
* CIRCLE       N/A       54  49  83 N/A        N/A   
* LINDSAY DVD  N/A       50  45  83 NW5        N/A   
* NAVAJO       N/A       54  50  86 W10        N/A   
--------------------------------

MTZ028.042-056.058-250900-
SOUTHCENTRAL AND SOUTHEAST MONTANA
CITY           SKY/WX    TMP DP  RH WIND       PRES   REMARKS
BAKER          CLEAR     57  48  72 NW9       29.92F 
BILLINGS       CLEAR     64  34  33 NE3       30.01S 
LIVINGSTON     CLEAR54  30  40 S8        30.06S 
MILES CITY     CLEAR     61  52  72 SW3       29.94S 
* LAUREL APT   CLEAR     63  37  38 N/A        N/A   
* ROUNDUP APT  CLEAR     61  27  27 N/A        N/A   
* ALZADA       N/A       56  52  87 N/A        N/A   
* HYSHAM       N/A       60  33  36 E1         N/A   
* LAME DEER    N/A       59  45  60 E6         N/A   
* REED POINT   N/A       63  30  29 SW4        N/A   
* ROSCOE HILL  N/A       59  33  38 SE9        N/A   
--------------------------------

REGIONAL REPORTS...DAKOTAS
CITY           SKY/WX    TMP DP  RH WIND       PRES   REMARKS
WILLISTON      CLEAR     55  52  90 NW3       29.83S 
DICKINSON      CLEAR     61  55  81 NW17      29.83R 
CROSBY         N/A       55  55 100 W8        29.81F 
TIOGA          CLEAR     57  57 100 W6        29.84S 
WATFORD CITY   CLEAR     55  54  96 S5        29.83R 
BISMARCK       FAIR      68  64  87 N7        29.74R 
GRAND FORKS    CLOUDY    70  61  73 SE8       29.76F 
FARGO          CLOUDY    70  61  73 SE12      29.74S 
BUFFALO SD     CLEAR     63  48  58 NW6       29.83R 
RAPID CITY     CLEAR     66  59  78 NW26G39   29.86R 
--------------------------------

REGIONAL REPORTS...WYOMING/IDAHO/WASHINGTON
CITY           SKY/WX    TMP DP  RH WIND       PRES   REMARKS
GILLETTE       CLEAR     57  46  67 CALM      30.02R 
SHERIDAN       CLEAR     57  48  72 SW6       30.01S 
YELLOWSTONE LA CLEAR     37  25  62 NW3       30.27F 
SALMON         CLEAR     54  36  51 SE3       30.09S 
MULLAN PASS    CLOUDY    45  39  80 VRB6      30.17S 
SAND POINT     CLOUDY    54  54 100 CALM      30.06S 
SPOKANE        PTCLDY    55  43  64 SW8       30.08S 
--------------------------------

REGIONAL REPORTS...ALBERTA
CITY           SKY/WX    TMP DP  RH WIND       PRES   REMARKS
CALGARY        MOCLDY    57  34  42 W14G21    29.75S 
LETHBRIDGE     CLEAR     57  41  55 SW18G29   29.83S 
EDMONTON       LGT RAIN  54  46  74 W13G20    29.60S 
WATERTON GATE  N/A       55  37  51 SW18G37    N/A   
CARDSTON       N/A       55  41  59 W18G26     N/A   
MILK RIVER     N/A       55  39  55 W21G28     N/A   
--------------------------------

REGIONAL REPORTS...SASKATCHEWAN
CITY           SKY/WX    TMP DP  RH WIND       PRES   REMARKS
SWIFT CURRENT  CLEAR     52  43  72 SW16G23   29.74F 
REGINA         N/A       52  50  93 S7        29.77F 
VAL MARIE      N/A       50  45  83 SW10       N/A   
ASSINIBOIA     N/A       52  48  86 SW9        N/A   
CORONACH       N/A       52  48  86 SW10       N/A   

--------------------------------